China Lake, CA

11:25 AM PDT on March 24, 2017 (GMT -0700)
China Lake NAWS

Weather History for KNID - February, 2012

Change the Weather History Date:

Wednesday, February 1, 2012

  Actual Average Record
Temperature  
Mean Temperature 52 °F -  
Max Temperature 69 °F 59 °F 69 °F (2009)
Min Temperature 34 °F 33 °F 24 °F (1999)
Degree Days  
Heating Degree Days 14    
Growing Degree Days 2 (Base 50)    
Moisture  
Dew Point 22 °F    
Average Humidity 33    
Maximum Humidity 50    
Minimum Humidity 17    
Precipitation  
Precipitation 0.00 in - - ()
Sea Level Pressure  
Sea Level Pressure 30.06 in    
Wind  
Wind Speed 6 mph (West)    
Max Wind Speed 25 mph    
Max Gust Speed 33 mph    
Visibility 10 miles    
Events      
Averages and records for this station are not official NWS values.
T = Trace of Precipitation, MM = Missing Value Source: NWS Daily Summary

Daily Weather History Graph

Daily Weather History Graph

Search for Another Location

Airport or City:

Trip Planner

Search our weather history database for the weather conditions in past years. The results will help you decide how hot, cold, wet, or windy it might be!

Date:

Astronomy

Feb. 01, 2012 Rise Set
Actual Time 6:51 AM PST 5:17 PM PST
Civil Twilight 6:24 AM PST 5:44 PM PST
Nautical Twilight 5:53 AM PST 6:15 PM PST
Astronomical Twilight 5:23 AM PST 6:45 PM PST
Moon 11:52 AM PST (2/1) 1:38 AM PST (2/1)
Length of Visible Light 11h 20m
Length of Day
10h 26m
Waxing Gibbous, 65% of the Moon is Illuminated
Feb 1
Waxing Gibbous
Feb 7
Full
Feb 14
Last Quarter
Feb 21
New
Feb 29
First Quarter

Hourly Weather History & Observations

Time (PST) Temp. Windchill Dew Point Humidity Pressure Visibility Wind Dir Wind Speed Gust Speed Precip Events Conditions
12:56 AM 39.9 °F - 16.0 °F 38% 30.14 in 10.0 mi Calm Calm - N/A   Clear
1:56 AM 43.0 °F - 18.0 °F 37% 30.12 in 10.0 mi Calm Calm - N/A   Clear
2:56 AM 42.1 °F - 18.0 °F 38% 30.13 in 10.0 mi Calm Calm - N/A   Clear
3:56 AM 42.1 °F 39.2 °F 19.0 °F 40% 30.11 in 10.0 mi SE 4.6 mph - N/A   Clear
4:56 AM 39.0 °F - 19.0 °F 45% 30.09 in 10.0 mi Calm Calm - N/A   Clear
5:56 AM 36.0 °F - 17.1 °F 46% 30.10 in 10.0 mi Calm Calm - N/A   Mostly Cloudy
6:56 AM 34.0 °F - 17.1 °F 50% 30.12 in 10.0 mi Calm Calm - N/A   Partly Cloudy
7:56 AM 42.1 °F 38.4 °F 19.0 °F 40% 30.13 in 10.0 mi WNW 5.8 mph - N/A   Clear
8:56 AM 48.9 °F - 18.0 °F 29% 30.11 in 10.0 mi Calm Calm - N/A   Clear
9:56 AM 53.1 °F - 19.9 °F 27% 30.10 in 10.0 mi North 3.5 mph - N/A   Clear
10:56 AM 62.1 °F - 27.0 °F 26% 30.07 in 10.0 mi NW 12.7 mph - N/A   Clear
11:56 AM 68.0 °F - 24.1 °F 19% 30.02 in 10.0 mi WSW 21.9 mph 31.1 mph N/A   Clear
12:56 PM 68.0 °F - 24.1 °F 19% 29.99 in 10.0 mi WSW 19.6 mph 29.9 mph N/A   Clear
1:56 PM 69.1 °F - 21.9 °F 17% 29.96 in 10.0 mi WSW 19.6 mph 28.8 mph N/A   Clear
2:56 PM 66.9 °F - 21.9 °F 18% 29.94 in 10.0 mi West 25.3 mph 33.4 mph N/A   Clear
3:56 PM 64.9 °F - 23.0 °F 20% 29.94 in 10.0 mi West 25.3 mph 32.2 mph N/A   Clear
4:56 PM 62.1 °F - 21.9 °F 21% 29.96 in 10.0 mi West 23.0 mph 29.9 mph N/A   Clear
5:56 PM 59.0 °F - 24.1 °F 26% 29.99 in 10.0 mi West 15.0 mph - N/A   Partly Cloudy
6:56 PM 55.9 °F - 24.1 °F 29% 30.02 in 10.0 mi West 10.4 mph - N/A   Partly Cloudy
7:56 PM 54.0 °F - 25.0 °F 33% 30.04 in 10.0 mi SW 8.1 mph - N/A   Partly Cloudy
8:56 PM 48.0 °F - 27.0 °F 44% 30.07 in 10.0 mi SSE 8.1 mph - N/A   Scattered Clouds
9:56 PM 46.9 °F - 27.0 °F 46% 30.08 in 10.0 mi WSW 9.2 mph - N/A   Scattered Clouds
10:56 PM 48.9 °F - 25.0 °F 39% 30.08 in 10.0 mi WNW 5.8 mph - N/A   Clear
11:56 PM 45.0 °F 41.8 °F 21.0 °F 39% 30.08 in 10.0 mi West 5.8 mph - N/A   Clear